Weather History for Lanai City, HI

Change the Weather History Date:

Sunday, May 12, 2013

  Actual Average Record
Temperature  
Mean Temperature 73 °F -  
Max Temperature 78 °F 79 °F 84 °F (1981)
Min Temperature 68 °F 62 °F 58 °F (1951)
Cooling Degree Days 8    
Growing Degree Days 23 (Base 50)    
Moisture  
Dew Point 68 °F    
Average Humidity 90    
Maximum Humidity 100    
Minimum Humidity 65    
Precipitation  
Precipitation 0.00 in - - ()
Sea Level Pressure  
Sea Level Pressure 30.09 in    
Wind  
Wind Speed 20 mph (NE)    
Max Wind Speed 33 mph    
Max Gust Speed 40 mph    
Visibility 8 miles    
Events Fog    
Averages and records for this station are not official NWS values.
T = Trace of Precipitation, MM = Missing Value Source: NWS Daily Summary

Daily Weather History Graph

Daily Weather History Graph

Search for Another Location

Airport:

Trip Planner

Search our weather history database for the weather conditions in past years. The results will help you decide how hot, cold, wet, or windy it might be!

Date:

Astronomy

May. 12, 2013 Rise Set
Actual Time 5:51 AM HST 6:56 PM HST
Civil Twilight 5:27 AM HST 7:20 PM HST
Nautical Twilight 4:59 AM HST 7:48 PM HST
Astronomical Twilight 4:31 AM HST 8:17 PM HST
Moon 8:00 AM HST (5/12) 9:28 PM HST (5/12)
Length of Visible Light 13h 52m
Length of Day
13h 05m
Waxing Crescent, 8% of the Moon is Illuminated
May 12
Waxing Crescent
May 17
First Quarter
May 24
Full
May 31
Last Quarter
Jun 8
New

Hourly Weather History & Observations

Time (HST) Temp. Dew Point Humidity Pressure Visibility Wind Dir Wind Speed Gust Speed Precip Events Conditions
12:44 AM 69.8 °F 68.0 °F 94% 30.12 in 10.0 mi NE 21.9 mph 29.9 mph N/A   Mostly Cloudy
12:56 AM 68.9 °F 68.0 °F 97% 30.06 in 10.0 mi NE 17.3 mph 31.1 mph N/A   Mostly Cloudy
1:32 AM 69.8 °F 68.0 °F 94% 30.11 in 10.0 mi NNE 19.6 mph 28.8 mph N/A   Mostly Cloudy
1:41 AM 69.8 °F 68.0 °F 94% 30.10 in 10.0 mi NE 19.6 mph 28.8 mph N/A   Mostly Cloudy
1:56 AM 69.8 °F 68.0 °F 94% 30.10 in 10.0 mi NE 21.9 mph 28.8 mph N/A   Overcast
2:07 AM 69.8 °F 68.0 °F 94% 30.10 in 5.0 mi NE 24.2 mph 28.8 mph N/A   Overcast
2:23 AM 68.0 °F 68.0 °F 100% 30.10 in 6.0 mi NE 23.0 mph - N/A   Overcast
2:33 AM 68.0 °F 68.0 °F 100% 30.10 in 6.0 mi NE 20.7 mph 27.6 mph N/A   Overcast
2:56 AM 68.9 °F 68.9 °F 100% 30.04 in 5.0 mi NE 19.6 mph - N/A   Overcast
3:27 AM 69.8 °F 69.8 °F 100% 30.09 in 2.0 mi NE 19.6 mph 26.5 mph N/A   Overcast
3:34 AM 68.0 °F 68.0 °F 100% 30.09 in 1.2 mi NE 19.6 mph 28.8 mph N/A   Overcast
3:36 AM 68.0 °F 68.0 °F 100% 30.09 in 0.8 mi NE 19.6 mph 28.8 mph N/A   Overcast
3:56 AM 68.0 °F 68.0 °F 100% 30.03 in 0.2 mi NE 17.3 mph 24.2 mph N/A Fog Fog
4:02 AM 68.0 °F 68.0 °F 100% 30.08 in 0.8 mi NE 23.0 mph 27.6 mph N/A   Overcast
4:04 AM 68.0 °F 68.0 °F 100% 30.08 in 1.5 mi NE 15.0 mph 27.6 mph N/A   Overcast
4:11 AM 68.0 °F 68.0 °F 100% 30.08 in 4.0 mi NE 19.6 mph 25.3 mph N/A   Overcast
4:17 AM 68.0 °F 68.0 °F 100% 30.08 in 1.8 mi NE 21.9 mph 26.5 mph N/A   Overcast
4:26 AM 68.0 °F 68.0 °F 100% 30.09 in 3.0 mi NE 20.7 mph - N/A   Overcast
4:56 AM 68.0 °F 68.0 °F 100% 30.09 in 10.0 mi NE 17.3 mph 24.2 mph N/A   Mostly Cloudy
5:08 AM 68.0 °F 68.0 °F 100% 30.09 in 10.0 mi NE 17.3 mph 25.3 mph N/A   Mostly Cloudy
5:56 AM 68.0 °F 68.0 °F 100% 30.05 in 10.0 mi NE 12.7 mph - N/A   Partly Cloudy
6:25 AM 69.8 °F 69.8 °F 100% 30.12 in 10.0 mi NE 13.8 mph - N/A   Mostly Cloudy
6:40 AM 69.8 °F 69.8 °F 100% 30.12 in 10.0 mi NE 17.3 mph 21.9 mph N/A   Overcast
6:56 AM 68.9 °F 68.9 °F 100% 30.07 in 10.0 mi NE 16.1 mph - N/A   Overcast
7:17 AM 69.8 °F 69.8 °F 100% 30.14 in 10.0 mi NE 16.1 mph 25.3 mph N/A   Mostly Cloudy
7:28 AM 71.6 °F 69.8 °F 94% 30.14 in 10.0 mi NE 18.4 mph 23.0 mph N/A   Scattered Clouds
7:56 AM 71.6 °F 68.0 °F 88% 30.14 in 10.0 mi NE 18.4 mph 27.6 mph N/A   Mostly Cloudy
8:56 AM 73.9 °F 68.0 °F 82% 30.09 in 10.0 mi NE 23.0 mph 28.8 mph N/A   Partly Cloudy
9:03 AM 73.4 °F 68.0 °F 83% 30.15 in 10.0 mi NE 26.5 mph - N/A   Scattered Clouds
9:56 AM 72.9 °F 66.9 °F 82% 30.08 in 10.0 mi NE 33.4 mph 38.0 mph N/A   Mostly Cloudy
10:38 AM 73.4 °F 66.2 °F 78% 30.14 in 10.0 mi NE 24.2 mph 34.5 mph N/A   Mostly Cloudy
10:48 AM 73.4 °F 66.2 °F 78% 30.14 in 10.0 mi NE 26.5 mph 33.4 mph N/A   Mostly Cloudy
10:56 AM 73.4 °F 66.2 °F 78% 30.14 in 10.0 mi NE 24.2 mph 34.5 mph N/A   Scattered Clouds
11:56 AM 77.0 °F 66.9 °F 71% 30.06 in 9.0 mi NE 26.5 mph 33.4 mph N/A   Partly Cloudy
12:56 PM 77.9 °F 66.9 °F 69% 30.04 in 10.0 mi NE 25.3 mph 40.3 mph N/A   Clear
1:56 PM 78.8 °F 66.2 °F 65% 30.09 in 10.0 mi NE 26.5 mph 32.2 mph N/A   Partly Cloudy
2:56 PM 77.9 °F 66.9 °F 69% 30.02 in 10.0 mi NNE 24.2 mph 33.4 mph N/A   Partly Cloudy
3:11 PM 77.0 °F 66.2 °F 69% 30.08 in 10.0 mi NE 28.8 mph 33.4 mph N/A   Partly Cloudy
3:56 PM 77.0 °F 68.0 °F 74% 30.01 in 10.0 mi NE 26.5 mph 34.5 mph N/A   Partly Cloudy
4:25 PM 75.2 °F 68.0 °F 78% 30.07 in 10.0 mi NE 24.2 mph 31.1 mph N/A   Mostly Cloudy
4:34 PM 75.2 °F 68.0 °F 78% 30.07 in 10.0 mi NE 19.6 mph 31.1 mph N/A   Scattered Clouds
4:56 PM 75.2 °F 66.2 °F 73% 30.06 in 10.0 mi NE 26.5 mph 34.5 mph N/A   Scattered Clouds
5:23 PM 73.4 °F 68.0 °F 83% 30.06 in 10.0 mi NE 21.9 mph 31.1 mph N/A   Mostly Cloudy
5:56 PM 72.9 °F 68.0 °F 85% 30.01 in 10.0 mi NE 20.7 mph 29.9 mph N/A   Scattered Clouds
6:56 PM 70.9 °F 66.9 °F 87% 30.03 in 10.0 mi NNE 13.8 mph - N/A   Partly Cloudy
7:44 PM 71.6 °F 68.0 °F 88% 30.10 in 10.0 mi NNE 13.8 mph - N/A   Mostly Cloudy
7:56 PM 69.8 °F 66.2 °F 88% 30.10 in 10.0 mi NE 16.1 mph - N/A   Mostly Cloudy
8:16 PM 69.8 °F 68.0 °F 94% 30.11 in 10.0 mi NNE 11.5 mph - N/A   Partly Cloudy
8:31 PM 71.6 °F 68.0 °F 88% 30.11 in 10.0 mi NE 15.0 mph - N/A   Mostly Cloudy
8:45 PM 71.6 °F 68.0 °F 88% 30.11 in 10.0 mi NE 15.0 mph - N/A   Mostly Cloudy
8:56 PM 70.9 °F 68.0 °F 91% 30.05 in 10.0 mi NE 12.7 mph - N/A   Mostly Cloudy
9:56 PM 70.9 °F 68.0 °F 91% 30.06 in 10.0 mi NE 12.7 mph - N/A   Mostly Cloudy
10:10 PM 71.6 °F 69.8 °F 94% 30.12 in 10.0 mi NE 8.1 mph - N/A   Mostly Cloudy
10:18 PM 71.6 °F 69.8 °F 94% 30.12 in 10.0 mi ENE 11.5 mph - N/A   Overcast
10:43 PM 71.6 °F 69.8 °F 94% 30.12 in 10.0 mi NNE 13.8 mph 18.4 mph N/A   Overcast
10:56 PM 69.8 °F 69.8 °F 100% 30.12 in 10.0 mi NE 13.8 mph - N/A   Overcast
11:56 PM 68.9 °F 68.0 °F 97% 30.05 in 10.0 mi NNE 10.4 mph - N/A   Scattered Clouds